[[[{"header":{"parameterUnit":"kt","parameterCategory":2,"dx":1,"dy":1,"la1":30.253999710083008,"la2":30.299108505249023,"lo1":-89.0895004272461,"lo2":-89.04439544677734,"nx":28,"ny":28,"refTime":"2022-10-08T21:00:00:Z","depth":"0","parameterNumber":2,"parameterNumberName":"U-component_of_CURRENTS"},"data":[-0.2867,-0.2732,-0.2715,-0.2476,-0.2444,-0.2257,-0.2205,-0.2168,-0.2192,-0.22,-0.2279,-0.2428,-0.2451,-0.2575,-0.244,-0.2329,-0.2271,-0.2172,-0.224,-0.2379,-0.2409,-0.2438,-0.2388,-0.2155,-0.2155,-0.192,-0.1919,-0.1918,-0.2998,-0.2974,-0.2939,-0.2912,-0.2799,-0.29,-0.2846,-0.2751,-0.2671,-0.2752,-0.2749,-0.2777,-0.267,-0.2697,-0.2601,-0.2494,-0.2425,-0.2435,-0.2383,-0.2343,-0.2534,-0.2478,-0.226,-0.226,-0.226,-0.226,-0.226,-0.226,-0.3223,-0.3202,-0.3266,-0.3252,-0.3239,-0.3187,-0.3109,-0.3123,-0.3067,-0.3015,-0.3156,-0.312,-0.3093,-0.3011,-0.2972,-0.2832,-0.2892,-0.2722,-0.2769,-0.2777,-0.2662,-0.2928,-0.2759,-0.2761,-0.2762,-0.2764,-0.2766,0,-0.3385,-0.3439,-0.3523,-0.3547,-0.3543,-0.3531,-0.3524,-0.3478,-0.3529,-0.3489,-0.3457,-0.3434,-0.3395,-0.3268,-0.3224,-0.3165,-0.3101,-0.3124,-0.312,-0.2859,-0.2869,-0.275,-0.3026,-0.2932,-0.2935,-0.2937,-0.2939,-0.294,-0.3435,-0.3548,-0.373,-0.3731,-0.3812,-0.3852,-0.3812,-0.3887,-0.3808,-0.3801,-0.3712,-0.3672,-0.359,-0.3508,-0.3432,-0.3378,-0.3353,-0.3199,-0.3154,-0.317,-0.3154,-0.3151,-0.3089,-0.2975,-0.297,-0.2967,-0.2964,0,-0.3426,-0.3606,-0.3761,-0.396,-0.3993,-0.4024,-0.4024,-0.3962,-0.3993,-0.3872,-0.3843,-0.3803,-0.3737,-0.3692,-0.3605,-0.3557,-0.3415,-0.3452,-0.3347,-0.3269,-0.316,-0.319,-0.3108,-0.3027,-0.3368,-0.3367,-0.3365,0,-0.3457,-0.3576,-0.3779,-0.3887,-0.3974,-0.4086,-0.4088,-0.412,-0.4072,-0.3985,-0.3978,-0.3872,-0.3811,-0.3731,-0.3701,-0.3593,-0.3595,-0.3513,-0.3447,-0.3312,-0.3296,-0.3214,-0.3232,-0.3512,-0.3512,-0.3512,-0.3512,0,-0.3339,-0.3585,-0.3772,-0.3843,-0.4017,-0.4069,-0.4119,-0.4112,-0.4081,-0.4048,-0.3952,-0.3919,-0.3821,-0.3777,-0.3686,-0.3678,-0.36,-0.3534,-0.3459,-0.3456,-0.3265,-0.3244,-0.3236,-0.3512,-0.3512,-0.3512,-0.3512,0,-0.3326,-0.3469,-0.3707,-0.3851,-0.3891,-0.3982,-0.402,-0.4093,-0.4054,-0.401,-0.3946,-0.3841,-0.3832,-0.376,-0.37,-0.3701,-0.3655,-0.3598,-0.3593,-0.3492,-0.3382,-0.3233,-0.3255,-0.3225,-0.3511,-0.3511,-0.3511,0,-0.3209,-0.3437,-0.3494,-0.3686,-0.3803,-0.381,-0.3899,-0.393,-0.3904,-0.3878,-0.3812,-0.3772,-0.3757,-0.3691,-0.3689,-0.3596,-0.3611,-0.362,-0.3445,-0.3443,-0.3384,-0.3443,-0.3282,-0.3264,-0.3511,-0.3511,-0.3511,0,-0.3079,-0.3269,-0.3286,-0.3378,-0.3494,-0.3529,-0.3649,-0.3723,-0.3728,-0.3731,-0.3735,-0.3767,-0.3649,-0.3653,-0.3599,-0.3585,-0.3608,-0.3525,-0.3518,-0.3532,-0.3511,-0.3451,-0.3446,-0.351,-0.351,-0.351,-0.3511,0,-0.3107,-0.3176,-0.3208,-0.3332,-0.3371,-0.3446,-0.3502,-0.3516,-0.3508,-0.3516,-0.3512,-0.346,-0.3436,-0.3448,-0.3452,-0.3484,-0.346,-0.3373,-0.3325,-0.3386,-0.338,-0.3381,-0.3335,-0.3333,-0.3331,-0.3329,0,0,-0.2985,-0.3065,-0.3024,-0.312,-0.3179,-0.3147,-0.3263,-0.3288,-0.332,-0.3322,-0.3291,-0.3274,-0.326,-0.3311,-0.3368,-0.3329,-0.3298,-0.3361,-0.3361,-0.3365,-0.3369,-0.3366,-0.3369,-0.3325,-0.3324,-0.3324,-0.3323,0,-0.3,-0.295,-0.3004,-0.3048,-0.31,-0.3128,-0.3139,-0.3178,-0.3198,-0.3244,-0.3216,-0.3191,-0.321,-0.3223,-0.3233,-0.3297,-0.3244,-0.3301,-0.3413,-0.3345,-0.3352,-0.3358,-0.3357,-0.3361,-0.3318,-0.3318,-0.3319,0,-0.297,-0.2985,-0.2984,-0.3014,-0.3036,-0.3125,-0.307,-0.3097,-0.3182,-0.309,-0.3163,-0.3114,-0.3106,-0.3149,-0.3157,-0.3135,-0.3187,-0.3177,-0.3187,-0.3214,-0.3139,-0.3148,-0.3156,-0.3052,-0.3052,-0.3052,0,0,-0.2989,-0.2988,-0.303,-0.3022,-0.3042,-0.3064,-0.3073,-0.309,-0.31,-0.3098,-0.309,-0.3084,-0.3097,-0.3101,-0.3096,-0.3114,-0.3073,-0.3149,-0.3162,-0.3173,-0.3205,-0.3135,-0.3144,-0.305,-0.305,-0.305,0,0,-0.3003,-0.3035,-0.3036,-0.3029,-0.3064,-0.3095,-0.3099,-0.3101,-0.3096,-0.3091,-0.3072,-0.3068,-0.3089,-0.3061,-0.3043,-0.3109,-0.3051,-0.3053,-0.3148,-0.3163,-0.3175,-0.3221,-0.3025,0,0,0,0,0,-0.3048,-0.3034,-0.3035,-0.3038,-0.3051,-0.3092,-0.3094,-0.3107,-0.3091,-0.31,-0.3089,-0.3069,-0.3068,-0.305,-0.3042,-0.31,-0.3029,-0.3033,-0.3036,-0.316,-0.3176,-0.3189,0,0,0,0,0,0,-0.3049,-0.3052,-0.3036,-0.3064,-0.3069,-0.309,-0.3085,-0.3088,-0.3092,-0.3093,-0.3072,-0.3068,-0.3063,-0.3052,-0.3045,-0.3102,-0.3028,-0.303,-0.3034,-0.3036,-0.3165,-0.3178,-0.319,0,0,0,0,0,-0.305,-0.3053,-0.3068,-0.3065,-0.3068,-0.3089,-0.3085,-0.3088,-0.3082,-0.308,-0.3077,-0.3094,-0.3063,-0.3056,-0.3048,-0.3107,-0.3032,-0.303,-0.3032,-0.3035,-0.3037,-0.3172,0,0,0,0,0,0,-0.3052,-0.3046,-0.3069,-0.3071,-0.307,-0.3089,-0.309,-0.3087,-0.3067,-0.3067,-0.3101,-0.3102,-0.3063,-0.3058,-0.3053,-0.3112,-0.3035,-0.3033,-0.3032,-0.3034,-0.3036,-0.3038,0,0,0,0,0,0,-0.3045,-0.3047,-0.307,-0.3075,-0.3078,-0.3088,-0.309,-0.3064,-0.3065,-0.3088,-0.309,-0.3102,-0.3062,-0.3059,-0.3055,-0.3014,-0.3038,-0.3036,-0.3034,-0.3033,-0.3036,-0.3037,0,0,0,0,0,0,-0.3046,-0.3048,-0.3074,-0.3076,-0.3079,-0.3099,-0.3063,-0.3066,-0.3101,-0.3087,-0.3102,-0.3103,-0.3062,-0.3059,-0.3056,-0.3017,-0.3015,-0.3038,-0.3037,-0.3035,-0.3035,0,0,0,0,0,0,0,-0.3047,-0.3033,-0.3064,-0.3077,-0.3079,-0.3093,-0.3093,-0.3093,-0.3101,-0.3101,-0.3102,-0.3102,-0.3051,-0.3049,-0.3046,-0.302,0,0,-0.3038,-0.3037,0,0,0,0,0,0,0,0,-0.3033,-0.3033,-0.3064,-0.3065,-0.3066,-0.3093,-0.3093,-0.3093,-0.3101,-0.3101,-0.3102,-0.3102,-0.3051,-0.3048,-0.3046,0,0,0,0,0,0,0,0,0,0,0,0,0,0,0,-0.3064,-0.3065,0,-0.3093,-0.3093,-0.3093,-0.3101,-0.3101,-0.3102,-0.3102,-0.305,-0.3048,-0.3047,0,0,0,0,0,0,0,0,0,0,0,0,0,0,0,0,0,0,0,0,0,0,0,0,0,0,0,0,0,0,0,0,0,0,0,0,0,0,0,0,0,0,0,0,0,0,0,0,0,0,0,0,0,0,0,0,0,0,0,0,0,0,0,0,0,0,0,0,0]}],[{"header":{"parameterUnit":"kt","parameterCategory":2,"dx":1,"dy":1,"la1":30.253999710083008,"la2":30.299108505249023,"lo1":-89.0895004272461,"lo2":-89.04439544677734,"nx":28,"ny":28,"refTime":"2022-10-08T21:00:00:Z","depth":"0","parameterNumber":3,"parameterNumberName":"V-component_of_CURRENTS"},"data":[-0.1579,-0.1653,-0.1679,-0.1744,-0.178,-0.1805,-0.1809,-0.1763,-0.1628,-0.1282,-0.0909,-0.061,0.018,0.1238,0.1806,0.1819,0.1988,0.1954,0.2049,0.1743,0.1701,0.1661,0.1695,0.2063,0.2064,0.2469,0.2473,0.2477,-0.1565,-0.1613,-0.1679,-0.1746,-0.178,-0.1781,-0.179,-0.1764,-0.1704,-0.1511,-0.1326,-0.0666,-0.0087,0.0441,0.1103,0.1323,0.1348,0.1413,0.1476,0.1516,0.1071,0.1087,0.1332,0.1332,0.1331,0.1331,0.1331,0.1331,-0.1507,-0.1577,-0.1633,-0.1692,-0.1729,-0.1754,-0.177,-0.1726,-0.1675,-0.1516,-0.1374,-0.1081,-0.0492,0.0133,0.0342,0.0801,0.0743,0.0924,0.0986,0.101,0.1111,0.0589,0.0764,0.0764,0.0763,0.0763,0.0762,0,-0.1448,-0.1466,-0.1541,-0.1613,-0.1641,-0.168,-0.1665,-0.1664,-0.1549,-0.1472,-0.1323,-0.1163,-0.0733,-0.0323,0.01,0.0278,0.0549,0.0463,0.0634,0.0803,0.085,0.0944,0.0376,0.052,0.0518,0.0516,0.0515,0.0514,-0.1316,-0.1388,-0.1471,-0.1507,-0.1526,-0.1562,-0.1553,-0.1479,-0.1443,-0.1293,-0.1256,-0.1029,-0.0837,-0.0424,-0.011,0.0205,0.0331,0.0405,0.0414,0.0571,0.0661,0.0696,0.0759,0.0492,0.0495,0.0497,0.0499,0,-0.1237,-0.1266,-0.137,-0.1405,-0.141,-0.1455,-0.141,-0.1392,-0.1298,-0.1232,-0.1196,-0.0984,-0.0759,-0.0509,-0.0256,-0.0101,0.0224,0.0182,0.0191,0.0225,0.0523,0.0582,0.084,0.0935,0.0362,0.0364,0.0366,0,-0.1122,-0.1188,-0.1228,-0.1283,-0.1345,-0.1297,-0.1309,-0.1257,-0.1156,-0.1108,-0.0951,-0.0875,-0.0633,-0.0469,-0.0309,-0.0073,-0.0098,0.0081,0.0114,0.0135,0.0142,0.0336,0.0402,0.0045,0.0044,0.0044,0.0043,0,-0.1014,-0.1078,-0.1169,-0.1179,-0.1187,-0.119,-0.1167,-0.1072,-0.1038,-0.0926,-0.0882,-0.0717,-0.0633,-0.0484,-0.0286,-0.0294,-0.0084,-0.0077,0.0068,0.0072,0.0159,0.0169,0.0392,0.0042,0.0042,0.0041,0.0041,0,-0.0912,-0.0972,-0.1065,-0.1093,-0.1099,-0.1097,-0.1062,-0.103,-0.0908,-0.0852,-0.0747,-0.0647,-0.0522,-0.0471,-0.028,-0.0323,-0.0233,-0.015,-0.0144,-0.0049,-0.003,0.0086,0.0138,0.0309,-0.0082,-0.0084,-0.0085,0,-0.0834,-0.0928,-0.0904,-0.0962,-0.1012,-0.0941,-0.0913,-0.0858,-0.0793,-0.0736,-0.061,-0.0548,-0.0473,-0.0444,-0.0366,-0.0266,-0.0209,-0.0263,-0.0118,-0.0114,-0.0063,-0.0031,0.0012,0.0112,-0.0101,-0.0099,-0.0098,0,-0.0769,-0.081,-0.0815,-0.0855,-0.0824,-0.0827,-0.0793,-0.0761,-0.0743,-0.0657,-0.0623,-0.0511,-0.0456,-0.0408,-0.0344,-0.0282,-0.0234,-0.0254,-0.025,-0.0222,-0.0126,-0.0062,-0.0045,-0.0215,-0.0214,-0.0212,-0.011,0,-0.0738,-0.0762,-0.077,-0.079,-0.0774,-0.0783,-0.0733,-0.0709,-0.0667,-0.0621,-0.055,-0.046,-0.039,-0.0363,-0.0319,-0.0267,-0.0255,-0.0236,-0.021,-0.0213,-0.0168,-0.0159,-0.0254,-0.0253,-0.0252,-0.0251,0,0,-0.0683,-0.072,-0.0688,-0.0712,-0.0711,-0.0655,-0.0681,-0.0638,-0.0588,-0.0565,-0.0546,-0.0422,-0.0362,-0.0295,-0.0297,-0.0265,-0.0235,-0.0257,-0.0217,-0.0214,-0.021,-0.0168,-0.016,-0.025,-0.0249,-0.0249,-0.0249,0,-0.068,-0.0662,-0.069,-0.0679,-0.0666,-0.0641,-0.0641,-0.0608,-0.0587,-0.0543,-0.05,-0.0443,-0.0359,-0.0311,-0.0272,-0.0258,-0.021,-0.025,-0.0265,-0.0211,-0.0209,-0.0207,-0.0166,-0.0159,-0.0246,-0.0246,-0.0247,0,-0.0658,-0.0654,-0.0654,-0.0643,-0.0625,-0.0628,-0.0595,-0.058,-0.0572,-0.0502,-0.047,-0.0419,-0.0344,-0.0299,-0.0272,-0.0258,-0.0182,-0.0206,-0.021,-0.02,-0.0142,-0.014,-0.0139,-0.0158,-0.0158,-0.0158,0,0,-0.066,-0.0666,-0.0643,-0.0639,-0.0635,-0.06,-0.0585,-0.0573,-0.0533,-0.0518,-0.0467,-0.0409,-0.0355,-0.032,-0.0269,-0.0213,-0.0171,-0.0199,-0.0203,-0.0207,-0.02,-0.0142,-0.0141,-0.0159,-0.0159,-0.0159,0,0,-0.0653,-0.0641,-0.0636,-0.0633,-0.0615,-0.0575,-0.0568,-0.0549,-0.0509,-0.0506,-0.0441,-0.0424,-0.0376,-0.0328,-0.0338,-0.0265,-0.0244,-0.0239,-0.0301,-0.0305,-0.0309,-0.0317,-0.0304,0,0,0,0,0,-0.064,-0.0644,-0.0639,-0.0635,-0.06,-0.0577,-0.0569,-0.0549,-0.0538,-0.054,-0.0488,-0.0456,-0.033,-0.0338,-0.0317,-0.0312,-0.0161,-0.016,-0.016,-0.0226,-0.0231,-0.0235,0,0,0,0,0,0,-0.0638,-0.0635,-0.0638,-0.0602,-0.0593,-0.0576,-0.0562,-0.0556,-0.0538,-0.0538,-0.0467,-0.0453,-0.0413,-0.0344,-0.0327,-0.0323,-0.031,-0.0161,-0.016,-0.016,-0.0227,-0.0232,-0.0235,0,0,0,0,0,-0.0636,-0.0633,-0.0592,-0.06,-0.0593,-0.0561,-0.0563,-0.0558,-0.0546,-0.0476,-0.0465,-0.0533,-0.0414,-0.0395,-0.0334,-0.0333,-0.0322,-0.0315,-0.016,-0.016,-0.016,-0.0229,0,0,0,0,0,0,-0.0635,-0.0622,-0.0589,-0.0584,-0.061,-0.0562,-0.0557,-0.056,-0.0484,-0.0473,-0.0539,-0.0539,-0.0414,-0.0399,-0.0385,-0.034,-0.0331,-0.0325,-0.0321,-0.016,-0.016,-0.016,0,0,0,0,0,0,-0.0623,-0.0619,-0.0587,-0.0601,-0.0598,-0.0563,-0.0559,-0.0489,-0.0481,-0.055,-0.0549,-0.054,-0.0418,-0.0402,-0.0391,-0.0284,-0.0339,-0.0333,-0.0328,-0.0325,-0.016,-0.016,0,0,0,0,0,0,-0.062,-0.0616,-0.0602,-0.0599,-0.0597,-0.0543,-0.0497,-0.0455,-0.0525,-0.0552,-0.0527,-0.0528,-0.042,-0.0409,-0.0395,-0.0293,-0.0286,-0.0339,-0.0334,-0.0331,-0.0329,0,0,0,0,0,0,0,-0.0617,-0.0658,-0.0616,-0.0598,-0.0596,-0.0541,-0.054,-0.0539,-0.0525,-0.0526,-0.0527,-0.0528,-0.0374,-0.0368,-0.0361,-0.03,0,0,-0.0339,-0.0336,0,0,0,0,0,0,0,0,-0.0658,-0.0658,-0.0616,-0.0615,-0.0614,-0.0541,-0.054,-0.0539,-0.0525,-0.0526,-0.0527,-0.0527,-0.0373,-0.0367,-0.0361,0,0,0,0,0,0,0,0,0,0,0,0,0,0,0,-0.0616,-0.0615,0,-0.0541,-0.054,-0.0539,-0.0525,-0.0526,-0.0527,-0.0527,-0.0371,-0.0367,-0.0362,0,0,0,0,0,0,0,0,0,0,0,0,0,0,0,0,0,0,0,0,0,0,0,0,0,0,0,0,0,0,0,0,0,0,0,0,0,0,0,0,0,0,0,0,0,0,0,0,0,0,0,0,0,0,0,0,0,0,0,0,0,0,0,0,0,0,0,0,0]}]],[[{"header":{"parameterUnit":"kt","parameterCategory":2,"dx":1,"dy":1,"la1":30.253999710083008,"la2":30.299108505249023,"lo1":-89.0895004272461,"lo2":-89.04439544677734,"nx":28,"ny":28,"refTime":"2022-10-08T21:00:00:Z","depth":"2","parameterNumber":2,"parameterNumberName":"U-component_of_CURRENTS"},"data":[-0.2502,-0.2401,-0.239,-0.2217,-0.2204,-0.2057,-0.202,-0.1975,-0.1957,-0.1877,-0.1827,-0.1959,-0.2017,-0.1654,-0.1578,-0.1408,-0.1567,-0.1338,-0.2046,-0.2003,-0.2044,-0.2163,-0.2064,0,0,0,0,0,-0.2603,-0.2589,-0.2575,-0.2571,-0.2496,-0.2587,-0.2572,-0.2491,-0.2434,-0.2468,-0.2457,-0.2217,-0.2092,-0.2094,-0.1882,-0.1867,-0.1829,-0.1785,-0.1709,-0.1758,-0.1803,-0.1703,-0.1316,-0.1313,-0.1311,-0.1309,0,0,-0.2781,-0.2767,-0.2821,-0.2825,-0.2839,-0.2816,-0.2766,-0.2804,-0.2791,-0.2763,-0.2901,-0.2809,-0.2788,-0.2558,-0.2444,-0.2357,-0.2562,-0.2425,-0.244,-0.2462,-0.2396,-0.2393,-0.2193,-0.2196,-0.22,-0.2202,-0.2205,0,-0.2898,-0.2947,-0.3007,-0.3043,-0.3063,-0.3069,-0.3105,-0.3093,-0.3188,-0.3184,-0.3187,-0.3172,-0.3126,-0.293,-0.2871,-0.28,-0.2824,-0.272,-0.3156,-0.2556,-0.2556,-0.2508,-0.253,-0.2395,-0.24,-0.2404,-0.2406,-0.2408,-0.2954,-0.3024,-0.3168,-0.3177,-0.3245,-0.3299,-0.3308,-0.3413,-0.3384,-0.3441,-0.3392,-0.3382,-0.3325,-0.3255,-0.317,-0.3108,-0.3191,-0.2832,-0.2774,-0.3187,-0.3137,-0.3139,-0.3141,-0.2461,-0.2454,-0.2449,-0.2444,0,-0.2956,-0.3085,-0.319,-0.3348,-0.3381,-0.3419,-0.347,-0.3462,-0.3538,-0.3493,-0.3486,-0.3498,-0.3453,-0.3419,-0.3356,-0.3311,-0.3247,-0.3213,-0.2974,-0.2894,-0.3153,-0.3152,-0.3132,-0.313,-0.3128,-0.3126,-0.3125,0,-0.2997,-0.3075,-0.322,-0.3294,-0.3374,-0.3467,-0.351,-0.3575,-0.3597,-0.3575,-0.3599,-0.354,-0.3508,-0.3453,-0.3426,-0.3332,-0.3349,-0.3258,-0.3205,-0.2969,-0.2943,-0.3221,-0.3213,-0.3284,-0.3284,-0.3284,-0.3284,0,-0.2927,-0.31,-0.3219,-0.3269,-0.3411,-0.3465,-0.3524,-0.3578,-0.3585,-0.3612,-0.3571,-0.3571,-0.3509,-0.3478,-0.3409,-0.3403,-0.3347,-0.3298,-0.3216,-0.3211,-0.293,-0.29,-0.3284,-0.3284,-0.3284,-0.3284,-0.3284,0,-0.2937,-0.3032,-0.3193,-0.3299,-0.333,-0.3406,-0.3466,-0.3541,-0.3577,-0.3572,-0.3555,-0.3495,-0.3504,-0.3443,-0.3408,-0.3406,-0.3371,-0.3326,-0.3322,-0.3218,-0.3126,-0.2874,-0.2869,-0.3257,-0.3257,-0.3257,-0.3257,0,-0.2854,-0.3011,-0.3056,-0.3187,-0.3264,-0.3288,-0.3378,-0.3427,-0.3433,-0.3451,-0.3422,-0.3419,-0.3406,-0.3372,-0.3376,-0.3312,-0.3327,-0.3328,-0.3195,-0.3193,-0.3125,-0.3183,-0.2906,-0.2881,-0.3254,-0.3255,-0.3255,0,-0.2761,-0.2898,-0.2911,-0.2971,-0.3063,-0.3085,-0.3191,-0.3267,-0.3299,-0.3321,-0.335,-0.3392,-0.3325,-0.3332,-0.3294,-0.3288,-0.332,-0.324,-0.3234,-0.3245,-0.3258,-0.3189,-0.3184,-0.3248,-0.3248,-0.3249,-0.3253,0,-0.2781,-0.283,-0.2855,-0.2947,-0.2976,-0.3035,-0.3085,-0.3113,-0.3121,-0.3147,-0.3171,-0.3139,-0.3143,-0.3157,-0.316,-0.32,-0.3177,-0.311,-0.3065,-0.3125,-0.3119,-0.3121,-0.3065,-0.3062,-0.3061,-0.3059,0,0,-0.2692,-0.2748,-0.2722,-0.2795,-0.2836,-0.2827,-0.291,-0.2939,-0.2978,-0.2995,-0.2972,-0.299,-0.2985,-0.3037,-0.3087,-0.3059,-0.3035,-0.3081,-0.3098,-0.3103,-0.3108,-0.3106,-0.311,-0.3056,-0.3055,-0.3054,-0.3054,0,-0.2702,-0.2666,-0.2705,-0.2742,-0.2789,-0.2813,-0.2825,-0.2864,-0.2884,-0.2933,-0.2915,-0.2915,-0.2939,-0.2955,-0.2966,-0.3029,-0.2986,-0.3035,-0.3129,-0.3084,-0.3091,-0.3097,-0.3097,-0.3102,-0.3049,-0.305,-0.305,0,-0.268,-0.2692,-0.2692,-0.2718,-0.2739,-0.2808,-0.2772,-0.2802,-0.2867,-0.2805,-0.2866,-0.2841,-0.2839,-0.2884,-0.2895,-0.2874,-0.2932,-0.2919,-0.2928,-0.2946,-0.2896,-0.2905,-0.2913,-0.2806,-0.2805,-0.2805,0,0,-0.2694,-0.2693,-0.2729,-0.2725,-0.2742,-0.2766,-0.2777,-0.2795,-0.2809,-0.281,-0.281,-0.2812,-0.2828,-0.2835,-0.2836,-0.286,-0.2826,-0.2894,-0.2905,-0.2915,-0.2938,-0.2891,-0.29,-0.2803,-0.2803,-0.2803,0,0,-0.2705,-0.2731,-0.2733,-0.2728,-0.2761,-0.2791,-0.2798,-0.2803,-0.2807,-0.2805,-0.2793,-0.2791,-0.2818,-0.2796,-0.2777,-0.2846,-0.2793,-0.2796,-0.2878,-0.2892,-0.2903,-0.2935,-0.276,0,0,0,0,0,-0.274,-0.273,-0.2731,-0.2734,-0.275,-0.2788,-0.2791,-0.2806,-0.2796,-0.2805,-0.2802,-0.2786,-0.2799,-0.2782,-0.2777,-0.283,-0.2783,-0.2786,-0.279,-0.29,-0.2914,-0.2927,0,0,0,0,0,0,-0.2742,-0.2744,-0.2733,-0.2759,-0.2764,-0.2786,-0.2783,-0.2786,-0.2796,-0.2797,-0.2787,-0.2785,-0.2782,-0.2782,-0.2778,-0.2831,-0.2761,-0.2784,-0.2787,-0.279,-0.2905,-0.2917,-0.2927,0,0,0,0,0,-0.2743,-0.2745,-0.2763,-0.276,-0.2764,-0.2787,-0.2783,-0.2786,-0.2788,-0.2789,-0.2787,-0.2801,-0.2782,-0.2778,-0.278,-0.2834,-0.2764,-0.2762,-0.2786,-0.2789,-0.2791,-0.2911,0,0,0,0,0,0,-0.2744,-0.2742,-0.2764,-0.2767,-0.2763,-0.2787,-0.2789,-0.2785,-0.2777,-0.2778,-0.2801,-0.2802,-0.2781,-0.2779,-0.2776,-0.2838,-0.2766,-0.2764,-0.2763,-0.2788,-0.279,-0.2792,0,0,0,0,0,0,-0.2742,-0.2744,-0.2765,-0.2768,-0.2771,-0.2787,-0.2789,-0.2773,-0.2776,-0.2788,-0.279,-0.2801,-0.2779,-0.2779,-0.2777,-0.2753,-0.2767,-0.2766,-0.2765,-0.2764,-0.279,-0.2791,0,0,0,0,0,0,-0.2743,-0.2745,-0.2767,-0.2769,-0.2771,-0.2798,-0.2772,-0.2778,-0.2803,-0.2787,-0.2804,-0.2805,-0.2778,-0.2777,-0.2778,-0.2755,-0.2753,-0.2767,-0.2766,-0.2766,-0.2765,0,0,0,0,0,0,0,-0.2744,-0.2726,-0.2755,-0.277,-0.2772,-0.2792,-0.2792,-0.2792,-0.2803,-0.2804,-0.2804,-0.2804,-0.2775,-0.2773,-0.2772,-0.2756,0,0,-0.2767,-0.2767,0,0,0,0,0,0,0,0,-0.2727,-0.2726,-0.2755,-0.2756,-0.2757,-0.2792,-0.2792,-0.2792,-0.2804,-0.2804,-0.2804,-0.2804,-0.2775,-0.2773,-0.2772,0,0,0,0,0,0,0,0,0,0,0,0,0,0,0,-0.2755,-0.2756,0,-0.2792,-0.2792,-0.2792,-0.2804,-0.2804,-0.2804,-0.2804,-0.2774,-0.2773,-0.2772,0,0,0,0,0,0,0,0,0,0,0,0,0,0,0,0,0,0,0,0,0,0,0,0,0,0,0,0,0,0,0,0,0,0,0,0,0,0,0,0,0,0,0,0,0,0,0,0,0,0,0,0,0,0,0,0,0,0,0,0,0,0,0,0,0,0,0,0,0]}],[{"header":{"parameterUnit":"kt","parameterCategory":2,"dx":1,"dy":1,"la1":30.253999710083008,"la2":30.299108505249023,"lo1":-89.0895004272461,"lo2":-89.04439544677734,"nx":28,"ny":28,"refTime":"2022-10-08T21:00:00:Z","depth":"2","parameterNumber":3,"parameterNumberName":"V-component_of_CURRENTS"},"data":[-0.1378,-0.1448,-0.1472,-0.1541,-0.1576,-0.1601,-0.1599,-0.1527,-0.1385,-0.118,-0.0956,-0.0646,-0.0219,0.0077,0.0375,0.0586,0.0555,0.0591,0.0549,0.0405,0.0394,0.0577,0.0516,0,0,0,0,0,-0.1354,-0.1399,-0.1461,-0.1522,-0.1558,-0.1556,-0.1553,-0.1519,-0.1448,-0.1253,-0.1064,-0.0662,-0.0249,0.0096,0.0501,0.0735,0.0696,0.0761,0.0677,0.0667,0.0658,0.0627,0.0756,0.0757,0.0757,0.0758,0,0,-0.1294,-0.1354,-0.1405,-0.1458,-0.1493,-0.1512,-0.1525,-0.1478,-0.1422,-0.1256,-0.111,-0.0829,-0.0488,0.0089,0.0358,0.06,0.0585,0.0653,0.0646,0.0638,0.061,0.058,0.0732,0.0732,0.0732,0.0732,0.0732,0,-0.1235,-0.1249,-0.1309,-0.1377,-0.1403,-0.143,-0.1417,-0.1413,-0.1304,-0.1223,-0.1067,-0.0909,-0.0506,-0.0149,0.024,0.04,0.0476,0.0552,0.0495,0.0443,0.0407,0.0424,0.041,0.0533,0.0532,0.0531,0.053,0.053,-0.1115,-0.1177,-0.1237,-0.1269,-0.1285,-0.1311,-0.1309,-0.1238,-0.1206,-0.1053,-0.1016,-0.0793,-0.0607,-0.0202,0.0083,0.0383,0.0372,0.052,0.0507,0.0417,0.0438,0.0424,0.041,0.052,0.0521,0.0522,0.0523,0,-0.1041,-0.1066,-0.115,-0.1174,-0.1174,-0.1208,-0.1168,-0.1154,-0.1068,-0.1002,-0.0968,-0.0762,-0.054,-0.0302,-0.0045,0.0099,0.0303,0.0375,0.0316,0.0345,0.0402,0.0392,0.0541,0.0544,0.0546,0.0548,0.055,0,-0.0937,-0.0989,-0.1018,-0.1066,-0.1114,-0.1068,-0.1076,-0.1026,-0.0938,-0.0891,-0.0745,-0.0668,-0.0436,-0.0273,-0.0117,0.0112,0.0102,0.0256,0.0294,0.0258,0.0258,0.021,0.0205,0.0244,0.0243,0.0242,0.0241,0,-0.0834,-0.0891,-0.0967,-0.0975,-0.0979,-0.0978,-0.0956,-0.0871,-0.0837,-0.0728,-0.0684,-0.0526,-0.0443,-0.0294,-0.0105,-0.0116,0.0105,0.0114,0.0245,0.0249,0.0287,0.0291,0.024,0.024,0.0239,0.0239,0.0239,0,-0.0744,-0.0797,-0.0884,-0.0894,-0.0899,-0.0902,-0.0856,-0.0831,-0.0721,-0.0665,-0.0566,-0.0471,-0.0353,-0.031,-0.0116,-0.0163,-0.0069,0.0015,0.0022,0.0103,0.0126,0.0203,0.0238,0.0103,0.0101,0.01,0.0099,0,-0.0658,-0.0752,-0.073,-0.0783,-0.0827,-0.0756,-0.0739,-0.0686,-0.0621,-0.0565,-0.0445,-0.0386,-0.0324,-0.0294,-0.022,-0.0115,-0.0056,-0.012,0.0054,0.0059,0.0096,0.0122,0.0099,0.0212,0.008,0.0082,0.0083,0,-0.0587,-0.0629,-0.0634,-0.0663,-0.0642,-0.0641,-0.062,-0.0586,-0.0566,-0.0494,-0.0454,-0.036,-0.0304,-0.0259,-0.0199,-0.0137,-0.0083,-0.0106,-0.0101,-0.0061,0.0046,0.009,0.0107,-0.006,-0.0058,-0.0057,0.0069,0,-0.0544,-0.0568,-0.0582,-0.0604,-0.0591,-0.0603,-0.0556,-0.0536,-0.0492,-0.0448,-0.0381,-0.0299,-0.0231,-0.021,-0.0171,-0.012,-0.0103,-0.0081,-0.0049,-0.0056,-0.0001,0.001,-0.0102,-0.0101,-0.01,-0.0099,0,0,-0.0476,-0.0512,-0.048,-0.0511,-0.0507,-0.0453,-0.0482,-0.0447,-0.0403,-0.0377,-0.0359,-0.0246,-0.0193,-0.013,-0.0138,-0.0111,-0.0073,-0.0103,-0.0061,-0.0057,-0.0053,-0.0001,0.0008,-0.0097,-0.0096,-0.0096,-0.0096,0,-0.0465,-0.0444,-0.0476,-0.0469,-0.0459,-0.0435,-0.0437,-0.0409,-0.0386,-0.0354,-0.0304,-0.0254,-0.0185,-0.0137,-0.01,-0.01,-0.0044,-0.0095,-0.0117,-0.0054,-0.0052,-0.0049,0.0002,0.0009,-0.0093,-0.0093,-0.0093,0,-0.043,-0.0424,-0.0425,-0.0417,-0.0402,-0.0412,-0.0371,-0.0364,-0.0359,-0.0286,-0.0265,-0.0216,-0.0146,-0.0112,-0.009,-0.0074,-0.001,-0.0038,-0.0043,-0.0033,0.0035,0.0036,0.0038,0.002,0.002,0.002,0,0,-0.0426,-0.0433,-0.041,-0.0412,-0.0409,-0.0376,-0.0365,-0.035,-0.0314,-0.03,-0.0253,-0.0199,-0.0151,-0.0121,-0.0078,-0.0037,0.0012,-0.0028,-0.0034,-0.0038,-0.0032,0.0035,0.0036,0.002,0.002,0.002,0,0,-0.0416,-0.0401,-0.0391,-0.0395,-0.038,-0.0343,-0.0343,-0.0321,-0.0287,-0.0281,-0.0217,-0.0201,-0.0165,-0.0121,-0.0127,-0.007,-0.0045,-0.0042,-0.0105,-0.0111,-0.0116,-0.0122,-0.0086,0,0,0,0,0,-0.0394,-0.0404,-0.0396,-0.0392,-0.0362,-0.0348,-0.0342,-0.0318,-0.0301,-0.0308,-0.0257,-0.0223,-0.0117,-0.0121,-0.0104,-0.0105,0.0021,0.0021,0.0021,-0.0051,-0.0058,-0.0063,0,0,0,0,0,0,-0.0392,-0.0389,-0.0395,-0.036,-0.0352,-0.0347,-0.0321,-0.0314,-0.0301,-0.0299,-0.0234,-0.0221,-0.0181,-0.0126,-0.0111,-0.0114,-0.0091,0.0021,0.0021,0.0021,-0.0053,-0.0059,-0.0064,0,0,0,0,0,-0.039,-0.0388,-0.0352,-0.0359,-0.0352,-0.0319,-0.0321,-0.0315,-0.0306,-0.024,-0.0229,-0.029,-0.0182,-0.0166,-0.0117,-0.0122,-0.01,-0.0095,0.0021,0.0021,0.0021,-0.0056,0,0,0,0,0,0,-0.0389,-0.0378,-0.0349,-0.0345,-0.0362,-0.032,-0.0315,-0.0317,-0.0247,-0.0237,-0.0293,-0.0292,-0.0182,-0.017,-0.0158,-0.0128,-0.0108,-0.0103,-0.01,0.0021,0.0021,0.0021,0,0,0,0,0,0,-0.0379,-0.0375,-0.0347,-0.0353,-0.0349,-0.032,-0.0316,-0.0261,-0.0245,-0.0303,-0.0301,-0.0293,-0.0185,-0.0172,-0.0163,-0.0079,-0.0114,-0.0109,-0.0106,-0.0103,0.0021,0.0021,0,0,0,0,0,0,-0.0376,-0.0373,-0.0354,-0.0351,-0.0348,-0.0301,-0.0268,-0.0231,-0.0279,-0.0306,-0.028,-0.028,-0.0187,-0.0178,-0.0167,-0.0087,-0.0081,-0.0114,-0.0111,-0.0108,-0.0106,0,0,0,0,0,0,0,-0.0374,-0.0409,-0.0373,-0.035,-0.0347,-0.0308,-0.0307,-0.0306,-0.0279,-0.028,-0.028,-0.028,-0.0143,-0.0138,-0.0132,-0.0094,0,0,-0.0115,-0.0112,0,0,0,0,0,0,0,0,-0.0409,-0.0409,-0.0373,-0.0372,-0.0371,-0.0308,-0.0307,-0.0306,-0.0279,-0.028,-0.028,-0.028,-0.0142,-0.0137,-0.0133,0,0,0,0,0,0,0,0,0,0,0,0,0,0,0,-0.0373,-0.0372,0,-0.0308,-0.0307,-0.0306,-0.0279,-0.028,-0.028,-0.028,-0.014,-0.0137,-0.0133,0,0,0,0,0,0,0,0,0,0,0,0,0,0,0,0,0,0,0,0,0,0,0,0,0,0,0,0,0,0,0,0,0,0,0,0,0,0,0,0,0,0,0,0,0,0,0,0,0,0,0,0,0,0,0,0,0,0,0,0,0,0,0,0,0,0,0,0,0]}]],[[{"header":{"parameterUnit":"kt","parameterCategory":2,"dx":1,"dy":1,"la1":30.253999710083008,"la2":30.299108505249023,"lo1":-89.0895004272461,"lo2":-89.04439544677734,"nx":28,"ny":28,"refTime":"2022-10-08T21:00:00:Z","depth":"4","parameterNumber":2,"parameterNumberName":"U-component_of_CURRENTS"},"data":[-0.1478,-0.1555,-0.1603,-0.1608,-0.162,-0.1716,-0.1803,-0.1921,-0.1902,-0.2073,-0.2041,-0.2162,-0.2123,-0.2258,-0.2101,-0.2111,-0.2125,-0.2236,-0.2231,-0.2349,-0.2369,-0.2387,-0.2324,0,0,0,0,0,-0.1555,-0.1571,-0.1651,-0.1695,-0.1813,-0.1848,-0.2023,-0.2119,-0.2289,-0.2251,-0.2333,-0.231,-0.225,-0.2291,-0.216,-0.2349,-0.2343,-0.2191,-0.2285,-0.2362,-0.2384,-0.2315,0,0,0,0,0,0,-0.1628,-0.1663,-0.1709,-0.1774,-0.1896,-0.1946,-0.2032,-0.2129,-0.2232,-0.2443,-0.2436,-0.2501,-0.2593,-0.2483,-0.2441,-0.2362,-0.2333,-0.2268,-0.2294,-0.2316,-0.2244,-0.2172,-0.199,0,0,0,0,0,-0.1664,-0.1708,-0.175,-0.183,-0.1934,-0.203,-0.2169,-0.2232,-0.2426,-0.2594,-0.2619,-0.2625,-0.2616,-0.2586,-0.2526,-0.2481,-0.263,-0.2547,-0.2559,-0.2546,-0.2513,-0.2502,-0.2512,-0.2468,-0.2471,-0.2473,-0.2474,0,-0.1728,-0.1724,-0.1828,-0.188,-0.1938,-0.2063,-0.2163,-0.2341,-0.2448,-0.2654,-0.2714,-0.2806,-0.2863,-0.271,-0.2756,-0.2678,-0.2644,-0.2605,-0.2592,-0.2549,-0.2531,-0.2537,-0.2541,-0.2492,-0.2491,-0.2489,-0.2488,0,-0.1762,-0.1802,-0.1841,-0.1948,-0.1993,-0.2065,-0.2252,-0.2363,-0.2517,-0.2668,-0.2735,-0.2887,-0.2889,-0.2921,-0.2933,-0.2836,-0.2784,-0.272,-0.2903,-0.2891,-0.2575,-0.2571,-0.2522,-0.2515,-0.2509,-0.2505,-0.2501,0,-0.1833,-0.1862,-0.1953,-0.196,-0.2032,-0.2124,-0.2244,-0.2338,-0.2522,-0.263,-0.276,-0.2849,-0.2927,-0.2956,-0.2937,-0.2833,-0.2937,-0.2745,-0.272,-0.2901,-0.2897,-0.2861,-0.2852,-0.2938,-0.2938,-0.2938,-0.2938,0,-0.1902,-0.1956,-0.1964,-0.1983,-0.2079,-0.2136,-0.221,-0.236,-0.2453,-0.263,-0.2731,-0.2825,-0.2907,-0.291,-0.2916,-0.2915,-0.2934,-0.2932,-0.2748,-0.2736,-0.2858,-0.2849,-0.2938,-0.2938,-0.2938,-0.2938,-0.2938,0,-0.1963,-0.1978,-0.2003,-0.2059,-0.208,-0.2145,-0.2262,-0.2338,-0.2497,-0.2579,-0.2687,-0.2768,-0.2856,-0.285,-0.2884,-0.2875,-0.2865,-0.2872,-0.2872,-0.266,-0.2616,-0.2756,-0.2847,-0.2847,-0.2846,-0.2845,-0.2845,0,-0.1966,-0.1995,-0.2025,-0.2072,-0.2081,-0.215,-0.2222,-0.2315,-0.2406,-0.2525,-0.2605,-0.2715,-0.2704,-0.2778,-0.2802,-0.2829,-0.2846,-0.2831,-0.2794,-0.2792,-0.2619,-0.2659,-0.2838,-0.2838,-0.2838,-0.2839,-0.284,0,-0.1966,-0.2004,-0.2012,-0.2027,-0.2089,-0.213,-0.2205,-0.2276,-0.2351,-0.2447,-0.254,-0.2632,-0.2681,-0.2706,-0.2741,-0.2772,-0.2831,-0.275,-0.2749,-0.2744,-0.2856,-0.2673,-0.2659,-0.2832,-0.2833,-0.2834,-0.2834,0,-0.197,-0.1983,-0.1998,-0.2045,-0.2087,-0.2114,-0.2184,-0.2247,-0.2307,-0.2362,-0.2466,-0.2528,-0.2597,-0.2634,-0.2642,-0.2714,-0.2687,-0.2672,-0.263,-0.2695,-0.2685,-0.269,-0.2607,-0.2605,-0.2604,-0.2603,0,0,-0.1942,-0.1951,-0.1985,-0.2016,-0.2036,-0.2093,-0.2122,-0.2177,-0.2256,-0.2291,-0.2316,-0.2438,-0.2469,-0.2544,-0.2586,-0.2593,-0.2584,-0.2586,-0.2664,-0.2671,-0.2677,-0.2671,-0.2678,-0.26,-0.2599,-0.2599,-0.2598,0,-0.193,-0.1945,-0.1968,-0.1999,-0.2054,-0.2082,-0.2101,-0.2163,-0.2203,-0.2278,-0.2298,-0.2367,-0.2429,-0.2465,-0.2486,-0.2566,-0.2539,-0.2583,-0.2632,-0.265,-0.2659,-0.2667,-0.2664,-0.2671,-0.2594,-0.2594,-0.2595,0,-0.1914,-0.1931,-0.1944,-0.1983,-0.2017,-0.2056,-0.2069,-0.2122,-0.2165,-0.2175,-0.2251,-0.2288,-0.2311,-0.2382,-0.2413,-0.2391,-0.2487,-0.2468,-0.2476,-0.2459,-0.2473,-0.2485,-0.2495,-0.2365,-0.2364,-0.2364,0,0,-0.1908,-0.1924,-0.1961,-0.1983,-0.2002,-0.2049,-0.2077,-0.2111,-0.2153,-0.2177,-0.2213,-0.2251,-0.2291,-0.2319,-0.2347,-0.2402,-0.2379,-0.2443,-0.2454,-0.2463,-0.2452,-0.2468,-0.2479,-0.2362,-0.2362,-0.2362,0,0,-0.1908,-0.1938,-0.1953,-0.1974,-0.2015,-0.2057,-0.2088,-0.2114,-0.2163,-0.2179,-0.2196,-0.2205,-0.2274,-0.227,-0.2244,-0.2351,-0.2302,-0.2308,-0.2369,-0.2382,-0.2392,-0.2374,-0.2231,0,0,0,0,0,-0.1919,-0.1929,-0.1942,-0.195,-0.2002,-0.2046,-0.2057,-0.2101,-0.2116,-0.2142,-0.2179,-0.2175,-0.2266,-0.2243,-0.2249,-0.2308,-0.2338,-0.2342,-0.2346,-0.2437,-0.2451,-0.2462,0,0,0,0,0,0,-0.1922,-0.193,-0.1943,-0.1979,-0.1992,-0.2045,-0.2056,-0.2068,-0.2115,-0.2121,-0.2168,-0.2175,-0.2184,-0.224,-0.2246,-0.2302,-0.2229,-0.2339,-0.2343,-0.2346,-0.2441,-0.2453,-0.2463,0,0,0,0,0,-0.1925,-0.1931,-0.1999,-0.198,-0.1992,-0.2052,-0.2056,-0.2066,-0.211,-0.2135,-0.2145,-0.2146,-0.2183,-0.2191,-0.2243,-0.23,-0.2226,-0.2228,-0.2342,-0.2344,-0.2347,-0.2447,0,0,0,0,0,0,-0.1927,-0.1944,-0.2003,-0.2009,-0.1984,-0.2051,-0.2061,-0.2065,-0.2122,-0.2132,-0.211,-0.2113,-0.2182,-0.2188,-0.2194,-0.2301,-0.2222,-0.2225,-0.2226,-0.2344,-0.2346,-0.2348,0,0,0,0,0,0,-0.1942,-0.1948,-0.2006,-0.2007,-0.2014,-0.2051,-0.2059,-0.2078,-0.2122,-0.2093,-0.2098,-0.2111,-0.217,-0.2187,-0.2191,-0.222,-0.222,-0.2222,-0.2223,-0.2224,-0.2346,-0.2347,0,0,0,0,0,0,-0.1946,-0.1952,-0.2006,-0.2011,-0.2017,-0.209,-0.2069,-0.2117,-0.2134,-0.2089,-0.2135,-0.2136,-0.2167,-0.2173,-0.2189,-0.2216,-0.2219,-0.222,-0.2221,-0.2222,-0.2223,0,0,0,0,0,0,0,-0.1949,-0.1891,-0.1967,-0.2014,-0.202,-0.2067,-0.2068,-0.207,-0.2134,-0.2134,-0.2135,-0.2136,-0.2208,-0.2211,-0.2213,-0.2212,0,0,-0.222,-0.2221,0,0,0,0,0,0,0,0,-0.1891,-0.1891,-0.1967,-0.1968,-0.197,-0.2067,-0.2068,-0.207,-0.2134,-0.2134,-0.2135,-0.2136,-0.2209,-0.2211,-0.2213,0,0,0,0,0,0,0,0,0,0,0,0,0,0,0,-0.1967,-0.1968,0,-0.2067,-0.2068,-0.2069,-0.2134,-0.2134,-0.2135,-0.2135,-0.2209,-0.2211,-0.2212,0,0,0,0,0,0,0,0,0,0,0,0,0,0,0,0,0,0,0,0,0,0,0,0,0,0,0,0,0,0,0,0,0,0,0,0,0,0,0,0,0,0,0,0,0,0,0,0,0,0,0,0,0,0,0,0,0,0,0,0,0,0,0,0,0,0,0,0,0]}],[{"header":{"parameterUnit":"kt","parameterCategory":2,"dx":1,"dy":1,"la1":30.253999710083008,"la2":30.299108505249023,"lo1":-89.0895004272461,"lo2":-89.04439544677734,"nx":28,"ny":28,"refTime":"2022-10-08T21:00:00:Z","depth":"4","parameterNumber":3,"parameterNumberName":"V-component_of_CURRENTS"},"data":[-0.0915,-0.0992,-0.1031,-0.1104,-0.1147,-0.1204,-0.12,-0.1149,-0.1058,-0.0954,-0.0769,-0.0647,-0.0325,-0.0437,-0.0003,0.0055,0.0114,0.0437,0.044,0.0529,0.0527,0.0525,0.0421,0,0,0,0,0,-0.0901,-0.0953,-0.1025,-0.1082,-0.1144,-0.1166,-0.1164,-0.1147,-0.1073,-0.0952,-0.0875,-0.0656,-0.0328,-0.0178,0.0006,0.006,0.0302,0.0274,0.0341,0.0527,0.0525,0.0425,0,0,0,0,0,0,-0.0881,-0.0928,-0.0989,-0.1037,-0.11,-0.1123,-0.1121,-0.1073,-0.1034,-0.0877,-0.0818,-0.0561,-0.0405,-0.0116,0.0081,0.0264,0.03,0.0337,0.0345,0.0345,0.0239,0.0146,0.0243,0,0,0,0,0,-0.0851,-0.0869,-0.0917,-0.0992,-0.1032,-0.1061,-0.1075,-0.1062,-0.0992,-0.0941,-0.0761,-0.0573,-0.0346,-0.0088,0.0123,0.0313,0.0419,0.0484,0.0483,0.0439,0.0388,0.0411,0.0398,0.0517,0.0516,0.0516,0.0516,0,-0.0784,-0.0831,-0.0887,-0.0921,-0.0945,-0.0973,-0.0991,-0.0947,-0.0933,-0.0803,-0.077,-0.058,-0.0448,-0.0096,0.0094,0.0369,0.0394,0.0477,0.0429,0.0383,0.0409,0.0396,0.0384,0.0514,0.0514,0.0515,0.0515,0,-0.0739,-0.0776,-0.0842,-0.0875,-0.088,-0.0901,-0.0896,-0.0894,-0.0829,-0.0773,-0.0746,-0.0573,-0.0374,-0.0176,0.0071,0.0168,0.0349,0.0405,0.0309,0.0341,0.0387,0.0375,0.0511,0.0512,0.0513,0.0513,0.0513,0,-0.0685,-0.0732,-0.0773,-0.081,-0.0843,-0.0828,-0.0835,-0.0793,-0.0735,-0.0696,-0.0584,-0.0511,-0.0313,-0.0164,-0.0025,0.0164,0.0195,0.0272,0.0312,0.0239,0.0229,0.0288,0.0282,0.0328,0.0326,0.0325,0.0324,0,-0.0615,-0.068,-0.0742,-0.0753,-0.0771,-0.0775,-0.0766,-0.0705,-0.0681,-0.0586,-0.0545,-0.0409,-0.0331,-0.0191,-0.0029,-0.0042,0.0181,0.0194,0.0271,0.0271,0.0279,0.0275,0.0323,0.0323,0.0322,0.0322,0.0322,0,-0.0565,-0.061,-0.0693,-0.07,-0.0706,-0.0728,-0.0686,-0.0681,-0.0597,-0.0546,-0.0463,-0.0384,-0.0286,-0.0253,-0.0065,-0.0116,-0.0021,0.0062,0.0071,0.0093,0.0121,0.0165,0.0175,0.0173,0.0171,0.0169,0.0168,0,-0.0483,-0.0573,-0.0567,-0.0624,-0.066,-0.061,-0.0614,-0.0578,-0.0526,-0.0478,-0.0378,-0.0328,-0.0288,-0.0254,-0.0188,-0.0081,-0.0022,-0.0097,0.011,0.0116,0.01,0.0111,-0.001,0.0143,0.0147,0.0149,0.015,0,-0.0411,-0.046,-0.0467,-0.0487,-0.0491,-0.0496,-0.0503,-0.0483,-0.0461,-0.0418,-0.0376,-0.0319,-0.026,-0.0225,-0.0172,-0.0113,-0.0054,-0.0078,-0.0072,-0.0019,0.0103,0.0084,0.0097,-0.002,-0.0018,-0.0017,0.0134,0,-0.0364,-0.039,-0.041,-0.0439,-0.044,-0.046,-0.0433,-0.0425,-0.0387,-0.0353,-0.03,-0.0237,-0.0178,-0.0167,-0.0139,-0.0094,-0.0069,-0.0043,-0.0005,-0.0018,0.0048,0.0061,-0.0069,-0.0068,-0.0066,-0.0065,0,0,-0.0284,-0.032,-0.0294,-0.0332,-0.0333,-0.0291,-0.0327,-0.0311,-0.0287,-0.0262,-0.0246,-0.016,-0.0122,-0.0077,-0.0092,-0.0073,-0.0025,-0.0069,-0.0023,-0.0019,-0.0015,0.0048,0.0059,-0.0063,-0.0063,-0.0062,-0.0062,0,-0.0265,-0.0246,-0.0282,-0.0285,-0.0284,-0.027,-0.0275,-0.026,-0.0242,-0.0234,-0.0182,-0.0141,-0.0107,-0.0066,-0.0038,-0.006,0.0005,-0.0059,-0.009,-0.0016,-0.0014,-0.0011,0.0051,0.006,-0.0059,-0.0059,-0.0059,0,-0.0216,-0.0212,-0.0216,-0.022,-0.0213,-0.0237,-0.0189,-0.0195,-0.0202,-0.0132,-0.0132,-0.009,-0.0036,-0.0025,-0.0014,0.0003,0.0043,0.0011,0.0006,0.0012,0.0092,0.0094,0.0096,0.0078,0.0078,0.0078,0,0,-0.0205,-0.0215,-0.0202,-0.0214,-0.0216,-0.0191,-0.019,-0.0175,-0.0151,-0.0141,-0.0107,-0.0066,-0.0034,-0.0015,0.0011,0.0024,0.0079,0.0024,0.0018,0.0012,0.0016,0.0093,0.0095,0.0079,0.0079,0.0079,0,0,-0.0194,-0.0183,-0.0169,-0.0183,-0.0181,-0.016,-0.0169,-0.0147,-0.0126,-0.0115,-0.0062,-0.005,-0.0035,-0.0001,-0.0,0.0021,0.0052,0.0053,-0.0008,-0.0015,-0.0021,-0.0025,0.0043,0,0,0,0,0,-0.0166,-0.0186,-0.0174,-0.0172,-0.016,-0.0166,-0.0164,-0.0141,-0.0115,-0.0129,-0.0087,-0.0055,0.0008,0.001,0.002,0.0009,0.0086,0.0084,0.0083,0.0009,0.0001,-0.0006,0,0,0,0,0,0,-0.0165,-0.0165,-0.0173,-0.0152,-0.0149,-0.0165,-0.0126,-0.012,-0.0114,-0.011,-0.0063,-0.0053,-0.002,0.0008,0.0016,0.0005,0.004,0.0085,0.0084,0.0083,0.0006,-0.0001,-0.0006,0,0,0,0,0,-0.0165,-0.0164,-0.0151,-0.0152,-0.0149,-0.0122,-0.0125,-0.012,-0.0115,-0.0067,-0.0057,-0.0098,-0.0022,-0.0012,0.0013,0.0,0.0035,0.0038,0.0085,0.0084,0.0083,0.0003,0,0,0,0,0,0,-0.0164,-0.0159,-0.015,-0.0148,-0.0144,-0.0121,-0.0118,-0.012,-0.0071,-0.0063,-0.0099,-0.0096,-0.0023,-0.0015,-0.0007,-0.0004,0.0031,0.0034,0.0035,0.0084,0.0083,0.0083,0,0,0,0,0,0,-0.0159,-0.0157,-0.0149,-0.0141,-0.0137,-0.0121,-0.0118,-0.0091,-0.0069,-0.0105,-0.0102,-0.0098,-0.0021,-0.0017,-0.0011,0.0028,0.0028,0.003,0.0032,0.0033,0.0083,0.0083,0,0,0,0,0,0,-0.0158,-0.0156,-0.0141,-0.0139,-0.0136,-0.0111,-0.0095,-0.0075,-0.0089,-0.0106,-0.0086,-0.0085,-0.0023,-0.0017,-0.0014,0.0023,0.0027,0.0028,0.0029,0.0031,0.0032,0,0,0,0,0,0,0,-0.0157,-0.0173,-0.0162,-0.0137,-0.0134,-0.0128,-0.0128,-0.0127,-0.0089,-0.0088,-0.0087,-0.0086,0.0012,0.0015,0.0018,0.0018,0,0,0.0027,0.0029,0,0,0,0,0,0,0,0,-0.0172,-0.0172,-0.0162,-0.0161,-0.0161,-0.0128,-0.0128,-0.0127,-0.0088,-0.0088,-0.0087,-0.0086,0.0013,0.0015,0.0018,0,0,0,0,0,0,0,0,0,0,0,0,0,0,0,-0.0162,-0.0161,0,-0.0128,-0.0128,-0.0127,-0.0088,-0.0088,-0.0087,-0.0086,0.0013,0.0015,0.0017,0,0,0,0,0,0,0,0,0,0,0,0,0,0,0,0,0,0,0,0,0,0,0,0,0,0,0,0,0,0,0,0,0,0,0,0,0,0,0,0,0,0,0,0,0,0,0,0,0,0,0,0,0,0,0,0,0,0,0,0,0,0,0,0,0,0,0,0,0]}]]]